CZ-6A R/B, 100177

Orbit data source: Space-Track

CZ-6A R/B, 100177 is space debris in LEO originally from a launch on Thu, 30 Jul 2026 UTC launched from the Taiyaun Space Center, China (TSC). Debris objects in space refer to the collection of defunct objects orbiting the Earth. Examples of debris include non-operational satellites, rocket bodies, and fragments generated from explosions, collisions, or faulty payload assembly.

Loading next visibility...
Identifier
100177, 2026-173D
Orbit
LEO
Country
Flag of CNCN / PRC
Related business
Manufacturer
SAST
Mission
Spacecraft
Bus & Motor
CZ-6A STAGE 2, YF-115
Mass
~6,000 kg wet, ~6,000 kg dry
Launch date (UTC)
2026-07-30 (2 weeks ago)
Launch vehicle
Unknown
Launch site
Taiyaun Space Center, China (TSC)
Object type
Payload
Rocket body
Debris
Shape & HBR
CYL, 8.0 m
Radar Cross Section
Large (>1 m²)

Expand to show TLE details & history
Last TLE update: 8 hours ago

TLE from 8 hours ago
0 CZ-6A R/B
1 A0177U 26173D   26227.61043971 -.00000054  00000-0  41417-4 0  9995
2 A0177  64.7944 234.7563 0097824 106.8397 254.3404 13.56153097  2245
Epoch: 2026-08-15T14:39Z
TLE epoch observation values (Epoch: 2026-08-15T14:39:01.990Z)
Latitude
-0.00003°
Longitude
50.97915°
Altitude
1,071.864 km
Speed
7.307 km/s
True Right ascension
15h 39m 01s
True Declination
0° 00' 00"
Sunlit
Object was in daylight at epoch
Visualization orbit readout
Latitude
Unknown
Longitude
Unknown
Altitude
Unknown
Speed
Unknown
Apparent Right ascension
Unknown
Apparent Declination
Unknown
Sunlit
N/A
Visualization observer readout
Local Sidereal Time
13:10:39
Azimuth
Unknown
Elevation
Unknown
Doppler factor
Unknown
Orbital elements
Apogee altitude
1,121.008 km
Perigee altitude
975.71 km
Semi-major axis
7,426.496 km
Eccentricity
0.00978
Inclination
64.7944°
RAAN
234.7563°
Arg. of periapsis
106.8397°
True anomaly
253.26464°
Mean anomaly
254.3404°
Eccentric anomaly
253.80216°
Mean motion
3.39131 °/min
Orbital period
106.15 mins
BSTAR
0.000041417
Loading maneuver chart data...
Computing Atmospheric mass density...
Loading historical data...
Loading historical data...
Loading historical data...
Loading historical data...
Loading historical data...
Loading historical data...
Loading historical data...
Other satellites on launch #173 in the year 2026 (2026-07-30 UTC)

Documentation

Showing up to 5 results
|